Sussex, Wisconsin, United States (53089)
Lat: 43.13N, Lon: 88.22W
Wx Zone: WIZ065
Local Info
Past Weather Observations for Today

NOTE: This archive is for the closest National Weather Service station to Sussex. Information may differ from the station used for current weather conditions.

Click here for Long-term Archive

Time Weather Temperature Dewpoint Humidity Pressure Winds Precip Visibility
22:15
Overcast
68°F / 20°C 68°F / 20°C 100% 29.95 in
(1014 mb)
SSE 9.2 mph
(SSE 15 kph)
- 10SM
21:55
Mostly Cloudy
Light Rain
68°F / 20°C 68°F / 20°C 100% 29.95 in
(1014 mb)
S 10.4 mph
(S 17 kph)
- 10SM
21:35
Partly Cloudy
Light Rain
68°F / 20°C 68°F / 20°C 100% 29.95 in
(1014 mb)
SSE 5.8 mph
(SSE 9 kph)
- 10SM
21:15
Mostly Cloudy
Light Rain
68°F / 20°C 68°F / 20°C 100% 29.95 in
(1014 mb)
SSE 3.5 mph
(SSE 6 kph)
- 10SM
20:55
Overcast
Rain
68°F / 20°C 66°F / 19°C 94% 29.95 in
(1014 mb)
S 3.5 mph
(S 6 kph)
0.07 in
(1.78 mm)
10SM
20:35
Overcast
Rain
68°F / 20°C 66°F / 19°C 94% 29.95 in
(1014 mb)
SSE 3.5 mph
(SSE 6 kph)
0.05 in
(1.27 mm)
7SM
20:15
Overcast
Heavy Rain
68°F / 20°C 66°F / 19°C 94% 29.98 in
(1015 mb)
S 4.6 mph
(S 7 kph)
0.02 in
(0.51 mm)
7SM
19:45
Overcast
Thunder Storms
70°F / 21°C 68°F / 20°C 94% 29.98 in
(1015 mb)
S 9.2 mph
(S 15 kph)
- 10SM
18:45
Overcast
72°F / 22°C 70°F / 21°C 94% 29.95 in
(1014 mb)
Calm - 10SM
17:45
Overcast
70°F / 21°C 66°F / 19°C 88% 29.95 in
(1014 mb)
SSE 4.6 mph
(SSE 7 kph)
- 10SM
16:45
Mostly Cloudy
Light Rain
72°F / 22°C 70°F / 21°C 94% 29.98 in
(1015 mb)
E 4.6 mph
(E 7 kph)
- 10SM
15:45
Overcast
Rain
70°F / 21°C 68°F / 20°C 94% 29.98 in
(1015 mb)
E 4.6 mph
(E 7 kph)
- 7SM
14:45
Mostly Cloudy
Thunder Storms
72°F / 22°C 66°F / 19°C 83% 30.01 in
(1016 mb)
SSE 6.9 mph
(SSE 11 kph)
- 7SM
14:00
Overcast
Thunder Storms
75°F / 24°C 72°F / 22°C 89% 30.01 in
(1016 mb)
SSW 9.2 mph
(SSW 15 kph)
- 2SM
13:45
Mostly Cloudy
Thunder Storms
82°F / 28°C 73°F / 23°C 74% 30.01 in
(1016 mb)
SW 4.6 mph
(SW 7 kph)
- 7SM
13:36
Overcast
Thunder Storms
82°F / 28°C 73°F / 23°C 74% 30.01 in
(1016 mb)
SSE 5.8 mph
(SSE 9 kph)
- 10SM
12:45
Partly Cloudy
84°F / 29°C 72°F / 22°C 66% 30.01 in
(1016 mb)
SSE 3.5 mph
(SSE 6 kph)
- 10SM
11:45
Partly Cloudy
84°F / 29°C 68°F / 20°C 58% 30.01 in
(1016 mb)
SW 3.5 mph
(SW 6 kph)
- 10SM
10:45
Partly Cloudy
84°F / 29°C 70°F / 21°C 62% 30.01 in
(1016 mb)
Calm - 10SM
09:45
Partly Cloudy
86°F / 30°C 66°F / 19°C 52% 30.01 in
(1016 mb)
Calm - 10SM
08:45
Partly Cloudy
84°F / 29°C 73°F / 23°C 70% 30.01 in
(1016 mb)
Calm - 10SM
07:45
Partly Cloudy
77°F / 25°C 75°F / 24°C 94% 30.01 in
(1016 mb)
Calm - 10SM
06:45
Overcast
Fog
73°F / 23°C 73°F / 23°C 100% 30.01 in
(1016 mb)
Calm - 1/4SM
05:45
Overcast
Fog
72°F / 22°C 72°F / 22°C 100% 30.01 in
(1016 mb)
Calm - 1/2SM
04:45
Mostly Cloudy
Fog
70°F / 21°C 70°F / 21°C 100% 30.01 in
(1016 mb)
Calm - 1/4SM
04:35
Overcast
Fog
68°F / 20°C 68°F / 20°C 100% 30.01 in
(1016 mb)
Calm - M1/4SM
04:15
Overcast
Fog
70°F / 21°C 70°F / 21°C 100% 30.01 in
(1016 mb)
Calm - 1/2SM
03:55
Overcast
Fog
70°F / 21°C 68°F / 20°C 94% 30.01 in
(1016 mb)
Calm - M1/4SM
03:35
Mostly Cloudy
Fog And Mist
70°F / 21°C 70°F / 21°C 100% 30.01 in
(1016 mb)
Calm - 3/4SM
03:15
Overcast
Fog
70°F / 21°C 70°F / 21°C 100% 30.01 in
(1016 mb)
Calm - 1/4SM
02:55
Overcast
Fog
70°F / 21°C 70°F / 21°C 100% 30.01 in
(1016 mb)
Calm - M1/4SM
02:35
Overcast
Fog
72°F / 22°C 70°F / 21°C 94% 30.01 in
(1016 mb)
Calm - 1/4SM
02:15
Partly Cloudy
Fog And Mist
70°F / 21°C 70°F / 21°C 100% 30.01 in
(1016 mb)
Calm - 2 1/2SM
01:55
Mostly Cloudy
Fog And Mist
72°F / 22°C 72°F / 22°C 100% 30.01 in
(1016 mb)
Calm - 3/4SM
01:35
Clear
72°F / 22°C 72°F / 22°C 100% 30.01 in
(1016 mb)
Calm - 7SM
01:15
Clear
Fog And Mist
72°F / 22°C 72°F / 22°C 100% 30.01 in
(1016 mb)
Calm - 4SM
00:55
Clear
72°F / 22°C 72°F / 22°C 100% 30.01 in
(1016 mb)
Calm - 7SM
00:35
Clear
72°F / 22°C 72°F / 22°C 100% 30.01 in
(1016 mb)
Calm - 7SM
00:15
Clear
73°F / 23°C 72°F / 22°C 94% 30.01 in
(1016 mb)
Calm - 7SM
Time Weather Temperature Dewpoint Humidity Pressure Winds Precip Visibility


Weather for websites

WeatherForYou.com, LLC is not responsible for any damages or problems caused by this service. Current weather conditions are obtained from the closest station including government and personal stations which may have varying degrees of accuracy. Weather forecasts are derived from the NOAA NDFD. Like all things, this site belongs to Jesus Christ... He just trusts us to maintain it. If you have any questions or comments email webmaster@weatherforyou.com

Copyright © 2016, WeatherForYou.com LLC. All rights reserved.